Location: Berg
(47.2344°N, 9.5296°E)
Time: 05:54:13
(UTC+00:00)

BEESAT 2 - Pass Details

Date: 02 December 2021
Orbit: 498 x 513 km, 64.9° (Epoch: 19 January)

Event Time Altitude Azimuth Distance (km) Brightness Sun altitude
Exits shadow 04:48:16 13° 358° (N) 1,560 ? -19.7°
Maximum altitude 04:50:22 19° 36° (NE) 1,286 ? -19.4°
Drops below altitude 10° 04:53:13 10° 82° (E) 1,747 ? -18.9°
Sets 04:55:53 0° 101° (E) 2,629 ? -18.5°
